Location: ??
(35.4824°N, 139.4679°E)
Time: 08:24:27
(UTC+00:00)

Cosmos 1428 Rocket - Pass Details

Date: 29 October 2020
Orbit: 947 x 989 km, 82.9° (Epoch: 02 December)

Event Time Altitude Azimuth Distance (km) Brightness Sun altitude
Rises 19:42:12 0° 192° (SSW) 3,666 7.4 -16.7°
Reaches altitude 10° 19:44:44 10° 195° (SSW) 2,717 6.7 -16.2°
Maximum altitude 19:50:55 66° 278° (W) 1,050 4.4 -15.0°
Drops below altitude 10° 19:57:05 10° 0° (N) 2,704 6.8 -13.7°
Sets 19:59:36 0° 4° (N) 3,648 7.5 -13.2°
